Regional Weather Roundup
Issued by NWS

Home | Current Version | Previous Version | Text Only | Print | Product List | Glossary On
Versions: 1 2 3 4 5 6 7 8 9 10 11 12 13 14 15 16 17 18 19 20 21 22 23 24 25 26 27 28 29 30 31 32 33 34 35 36 37 38 39 40 41 42 43 44 45 46 47 48 49 50
000
ASUS44 KBMX 250410
RWRAL

ALABAMA REGIONAL WEATHER ROUNDUP
NATIONAL WEATHER SERVICE BIRMINGHAM AL
1100 PM CDT SUN MAY 24 2015

NOTE: "FAIR" INDICATES FEW OR NO CLOUDS BELOW 12,000 FEET
WITH NO SIGNIFICANT WEATHER AND/OR OBSTRUCTIONS TO VISIBILITY.

THE REMARK "TC" DENOTES TEMPERATURE IN DEGREES CELSIUS.

ALZ001>011-014-016>018-020-250500-
NORTH ALABAMA

CITY           SKY/WX    TMP DP  RH WIND       PRES   REMARKS
MUSCLE SHOALS  CLOUDY    69  65  86 SE3       30.13S
HUNTSVILLE     PTCLDY    69  66  90 E8        30.15F
DECATUR        PTCLDY    67  66  97 E3        30.15F
HALEYVILLE     MOCLDY    67  67 100 CALM      30.16F
GADSDEN        MOCLDY   N/A N/A N/A SE6       30.17F
$$

ALZ012-013-022-023-030>036-040>044-250500-
WEST CENTRAL ALABAMA

CITY           SKY/WX    TMP DP  RH WIND       PRES   REMARKS
TUSCALOOSA     MOCLDY    72  67  84 SE8       30.13R
$$

ALZ015-024>027-033>036-040>044-250500-
CENTRAL ALABAMA

CITY           SKY/WX    TMP DP  RH WIND       PRES   REMARKS
BIRMINGHAM     PTCLDY    72  66  81 SE5       30.18S
MONTGOMERY     CLEAR     76  67  73 CALM      30.16R
SHELBY CO ARPT PTCLDY    69  67  93 CALM      30.16S
MAXWELL AFB    NOT AVBL
GREENVILLE     FAIR      73  67  81 SE5       30.16S
$$

ALZ019-021-028-029-037-038-045>048-250500-
EAST CENTRAL ALABAMA

CITY           SKY/WX    TMP DP  RH WIND       PRES   REMARKS
ANNISTON       CLOUDY    75  61  61 NE5       30.20S
ALEXANDER CITY MOCLDY    72  60  67 E6        30.19F
AUBURN         PTCLDY    72  55  56 E7        30.22S
$$

ALZ051>064-250500-
SOUTHWEST ALABAMA

CITY           SKY/WX    TMP DP  RH WIND       PRES   REMARKS
MOBILE         MOCLDY    77  74  90 SE18G24   30.12S
BROOKLEY FIELD MOCLDY    80  74  81 SE17      30.13R
EVERGREEN      PTCLDY    74  70  87 SE6       30.16R
$$

ALZ049-050-065>069-250500-
SOUTHEAST ALABAMA

CITY           SKY/WX    TMP DP  RH WIND       PRES   REMARKS
DOTHAN         CLEAR     78  62  57 SE10      30.21R
OZARK          MOCLDY    73  71  95 E5        30.16S
TROY           MOCLDY    73  69  87 SE3       30.18S
EUFAULA        FAIR      77  60  55 SE9       30.19R
$$


USA.gov is the U.S. government's official web portal to all federal, state and local government web resources and services.